Regional Weather Roundup
Issued by NWS Upton, NY

Current Version | Previous Version | Graphics & Text | Print | Product List | Glossary Off
Versions: 1 2 3 4 5 6 7 8 9 10 11 12 13 14 15 16 17 18 19 20 21 22 23 24 25 26 27 28 29 30 31 32 33 34 35 36 37 38 39 40 41 42 43 44 45 46 47 48 49 50

000
ASUS41 KOKX 251407
RWROKX

REGIONAL WEATHER ROUNDUP
NATIONAL WEATHER SERVICE NEW YORK NY
1000 AM EDT SAT APR 25 2015

NOTE: "FAIR" INDICATES FEW OR NO CLOUDS BELOW 12,000 FEET WITH NO
SIGNIFICANT WEATHER AND/OR OBSTRUCTIONS TO VISIBILITY.

NYZ071-072-176-178-NJZ106-104-251500-
NEW YORK CITY METRO AREA


CITY           SKY/WX    TMP DP  RH WIND       PRES   REMARKS
CENTRAL PARK   SUNNY     46  21  37 NW9G17    29.90F
LAGUARDIA APRT PTSUNNY   46  24  42 NW15      29.87F
KENNEDY INTL   PTSUNNY   48  21  34 NW14G23   29.88F
NEWARK/LIBERTY PTSUNNY   48  23  37 NW15      29.90F
BRNX BOT. GARD   N/A     45  23  42 N6        29.89S
TETERBORO      SUNNY     46  23  40 W14G20    29.88F
$$

NYZ177-179-078>081-251500-
LONG ISLAND NEW YORK

CITY           SKY/WX    TMP DP  RH WIND       PRES   REMARKS
FARMINGDALE    SUNNY     46  23  40 W9G18     29.87F
ISLIP          MOSUNNY   46  23  40 NW14      29.85S
SHIRLEY        SUNNY     45  23  42 NW15G23   29.85F
WESTHAMPTON    SUNNY     46  23  40 NW17      29.85F
MONTAUK POINT    N/A     44  26  49 W10       29.83F
$$

NYZ052-065-067-251500-
HUDSON VALLEY

CITY           SKY/WX    TMP DP  RH WIND       PRES   REMARKS
WHITE PLAINS   SUNNY     43  22  43 W10G20    29.85S
NEWBURGH       SUNNY     41  27  56 W12       29.87F
MONTGOMERY     SUNNY     45  25  45 W8        29.86F
POUGHKEEPSIE   SUNNY     44  24  45 W8        29.86F
ALBANY         MOSUNNY   43  23  45 NW10      29.85F
$$

NJZ001-105-106-008-010-013-015-019>022-104-251500-
NEW JERSEY

CITY           SKY/WX    TMP DP  RH WIND       PRES   REMARKS
NEWARK/LIBERTY PTSUNNY   48  23  37 NW15      29.90F
TETERBORO      SUNNY     46  23  40 W14G20    29.88F
CALDWELL       MOSUNNY   45  22  40 NW12      29.89F
MORRISTOWN     PTSUNNY   45  23  42 W8G17     29.90F
SOMERVILLE     PTSUNNY   46  22  38 NW9       29.90F
SUSSEX         SUNNY     44  23  43 N10G18    29.89F
ANDOVER          N/A     43  23  45 VRB5      29.89F
TRENTON        CLOUDY    44  22  41 NW9       29.92S
MILLVILLE      CLOUDY    45  24  43 NW8       29.94F
ATLANTIC CITY  PTSUNNY   46  22  38 NW10      29.94S
WRIGHTSTOWN    CLOUDY    46  24  42 NW8       29.91S
TOMS RIVER     CLOUDY    45  21  39 NW9G16    29.93S
BELMAR         PTSUNNY   46  21  36 W16       29.90S
$$

PAZ047>061-062-071-251500-
EASTERN PENNSYLVANIA

CITY           SKY/WX    TMP DP  RH WIND       PRES   REMARKS
PHILADELPHIA   CLOUDY    46  22  38 VRB6      29.96S
ALLENTOWN      CLOUDY    44  24  45 NW7       29.93S
SCRANTON       SUNNY     42  22  44 W15G22    29.91S
$$

CTZ002-004>006-009-010-012-RIZ004-006-007-MAZ004-011-015-251500-
SOUTHERN NEW ENGLAND
 IN CT

CITY           SKY/WX    TMP DP  RH WIND       PRES   REMARKS
BRADLEY INTL   MOSUNNY   46  23  40 NW9G18    29.81F
HARTFORD       SUNNY     44  23  43 VRB7      29.83F
DANBURY        SUNNY     43  21  41 W9        29.86F
WTRBRY/OXFORD  SUNNY     43  21  42 N17       29.83F
BRIDGEPORT     SUNNY     47  23  38 NW12      29.85F
MERIDEN        SUNNY     46  23  40 NW9G17    29.83F
NEW HAVEN      SUNNY     45  23  42 VRB7      29.83F
CHESTER        FAIR      43  23  45 N10G18    29.81F
GROTON         SUNNY     46  23  40 W10       29.81F
WILLIMANTIC    SUNNY     44  24  45 NW10G16   29.81F

 IN RI

CITY           SKY/WX    TMP DP  RH WIND       PRES   REMARKS
PROVIDENCE     SUNNY     46  24  42 NW9       29.79F
BLOCK ISLAND   SUNNY     43  25  49 W13G21    29.81S
WESTERLY       SUNNY     45  23  42 W8        29.81F

 IN MA

CITY           SKY/WX    TMP DP  RH WIND       PRES   REMARKS
BOSTON         MOSUNNY   45  24  43 W13G20    29.76F
WORCESTER      SUNNY     41  22  46 NW13      29.75S
WESTFIELD      SUNNY     46  23  40 NW8G17    29.81F
PROVINCETOWN   SUNNY    N/A N/A N/A NW14      29.76F
NANTUCKET      SUNNY     44  25  47 NW15      29.77F
$$

ANZ330-335-338-340-345-350-353-355-251500-
COASTAL MARINE OBSERVATIONS


STATION/POSITION TIME  SKY/WX   TEMP    WIND        PRES    VSBY  WAVE
                                AIR SEA DIR/SP/G                  HT/PER
                 (UTC)          (F)     (DEG/KT/KT) (MB)    (MI)  (FT/S)
NY HARB ENTRANCE 1350            42 44  290/ 16/ 19 1011.9          2/ 4
4S FIRE IS       1303               43                N/A           2/ 4
20S FIRE ISLAND  1350            40 43  300/ 17/ 19 1011.6          3/ 5
23SW MTP         1350                                 N/A           3/ 5
HUDSON CANYON    NOT AVBL
EXECUTION ROCKS  NOT AVBL
WESTERN LI SOUND NOT AVBL
CENTRAL LI SOUND NOT AVBL
EASTERN LI SOUND 1300            42     300/ 12/ 17   N/A
ROBBINS REEF     1300                   300/ 14/ 17 1011.4
$$


>>>>>>>>>>>>>>>>>>>>>>>>>>>> KEY <<<<<<<<<<<<<<<<<<<<<<<<<<<
>                                                          <
>     SKY/WX - SKY CONDITION/PRESENT WEATHER               <
>     TMP    - TEMPERATURE IN FAHRENHEIT                   <
>     DP     - DEWPOINT IN FAHRENHEIT                      <
>     RH     - RELATIVE HUMIDITY IN PERCENT                <
>     WIND   - DIRECTION AND SPEED IN MPH                  <
>     PRES   - MEAN SEA LEVEL PRESSURE IN INCHES OF HG     <
>     WCI    - WIND CHILL INDEX                            <
>     VSB    - VISIBILITY IN MILES                         <
>     HX     - HEAT INDEX                                  <
>     TC     - TEMPERATURE IN CELSIUS                      <
>     VRB    - VARIABLE WIND DIRECTION                     <
>                                                          <
>>>>>>>>>>>>>>>>>>>>>>>>>>>> KEY <<<<<<<<<<<<<<<<<<<<<<<<<<<




USA.gov is the U.S. government's official web portal to all federal, state and local government web resources and services.